Retour au catalogue

STARLINK-31888

ActifCommunicationsVLEO
NORAD 59788·PAYLOAD·🇺🇸 United States

Lancé May 18, 2024 depuis Cape Canaveral Space Force Station

Loading…

Prochains Passages (prochaines 24 heures)

TLE

FraisSource: CelesTrak SupGP

Époque: Sep 14, 2026, 21:14 UTC

1 59788C 24093G   26257.88520833  .00037349  00000+0  13528-2 0  2577
2 59788  43.0027 220.1743 0001639 265.0010  82.3717 15.27558164    10

Suivez STARLINK-31888 en temps réel avec AllMySat

Download on the App Store